Hourly Weather Roundup
Issued by NWS Central Illinois

Home | Current Version | Previous Version | Text Only | Print | Product List | Glossary On
Versions: 1 2 3 4 5 6 7 8 9 10 11 12 13 14 15 16 17 18 19 20 21 22 23 24 25 26 27 28 29 30 31 32 33 34 35 36 37 38 39 40 41 42 43 44 45 46 47 48 49 50
876
NZUS43 KILX 230510
HWRILX

Area Weather Roundup
National Weather Service Lincoln IL
1200 AM CDT TUE MAY 23 2017

NOTE:  "FAIR" indicates few or no clouds below 12,000 feet, with
       no sigificant weather and/or obstructions to visibility.


CITY           SKY/WX    TMP DP  RH WIND       PRES   REMARKS
Bloomington    LGT RAIN  59  55  87 W9        29.96S
Champaign      CLOUDY    59  55  87 SE3       29.95F
Danville       CLOUDY    59  55  86 CALM      29.93F
Decatur        CLOUDY    59  56  89 CALM      29.95F
Effingham      CLOUDY    60  58  95 CALM      29.96F
Flora          CLOUDY    64  55  73 CALM      29.95S
Galesburg      CLOUDY    57  53  86 S10       29.88F
Jacksonville   RAIN      56  55  94 CALM      29.96F
Lacon          CLOUDY    58  56  93 SW9G16    29.90F
Lawrenceville  MOCLDY    62  52  69 SE7       29.95F
Litchfield     MOCLDY    60  56  89 E6        29.95F
$$


CITY           SKY/WX    TMP DP  RH WIND       PRES   REMARKS
Lincoln        RAIN      60  58  95 W3        29.97S
Macomb         LGT RAIN  57  55  94 S9        29.94S
Mattoon        CLOUDY    59  56  89 N6        29.95S
Mt Carmel AP   CLOUDY    62  51  69 SE6       29.95F
Olney-Noble AP CLOUDY    63  54  74 SE3       29.96S
Paris AP       CLOUDY    59  53  81 CALM      29.96S
Peoria         LGT RAIN  58  57  97 S13       29.92F
Pontiac        LGT RAIN  60  58  92 S8        29.94F
Rantoul        CLOUDY    61  58  89 SE3       29.95F
Robinson       CLOUDY    61  52  72 SE3       29.96F
Springfield    LGT RAIN  60  57  89 SW6       29.98R
Taylorville    CLOUDY    59  57  94 CALM      29.95F
$$

...REGIONAL REPORTS...


CITY           SKY/WX    TMP DP  RH WIND       PRES   REMARKS
Chicago O`Hare CLOUDY    60  53  77 SW6       29.88F
Kankakee       LGT RAIN  59  54  83 SW6       29.94F
Moline         CLOUDY    59  53  80 S7        29.86F
Mount Sterling LGT RAIN  56  55  97 S9        29.95R
Mount Vernon     N/A     58  56  93 CALM      29.94F
Pittsfield     DRIZZLE   57  56  97 NE5       29.94F
Quincy         LGT RAIN  57  56  96 SE6       29.93F
Rockford       MOCLDY    59  54  83 SW10      29.88S
$$


CITY           SKY/WX    TMP DP  RH WIND       PRES   REMARKS
Burlington     PTCLDY    58  53  84 S7        29.87F
Cedar Rapids   CLOUDY    55  55 100 SW6       29.83S
Des Moines     LGT RAIN  57  54  89 W5        29.85F
Kirksville     CLOUDY    56  54  93 S7        29.91F
Ottumwa        CLOUDY    55  51  86 SW8       29.86F
St Louis       MOCLDY    68  50  52 N8        29.93F
$$


CITY           SKY/WX    TMP DP  RH WIND       PRES   REMARKS
Terre Haute    PTCLDY    61  51  70 CALM      29.95F
Evansville     CLOUDY    61  52  72 CALM      29.96F
Indianapolis   CLOUDY    60  48  64 S7        29.96F
Lafayette      CLOUDY    59  53  80 NW3       29.95S
Madison        LGT RAIN  56  54  93 SW6       29.83R
Milwaukee      CLOUDY    62  53  72 SW9       29.85F
$$






USA.gov is the U.S. government's official web portal to all federal, state and local government web resources and services.